Time,TemperatureF,DewpointF,PressureIn,WindDirection,WindDirectionDegrees,WindSpeedMPH,WindSpeedGustMPH,Humidity,HourlyPrecipIn,Conditions,Clouds,dailyrainin,SolarRadiationWatts/m^2,SoftwareType,DateUTC
2014-01-12 00:00:00,71.5,0.0,30.01,SW,221,2.0,6.0,0,0.00,,CLR,0.02,0.00,VWS V14.00,2014-01-12 05:00:00,
2014-01-12 00:01:00,71.5,0.0,30.01,SW,221,0.0,3.0,0,0.00,,CLR,0.02,0.00,VWS V14.00,2014-01-12 05:01:00,
2014-01-12 00:04:00,71.5,0.0,30.01,SW,221,2.0,7.0,0,0.00,,CLR,0.00,0.00,VWS V14.00,2014-01-12 05:04:00,
2014-01-12 00:09:00,71.5,0.0,30.01,SW,221,0.0,3.0,0,0.00,,CLR,0.00,0.00,VWS V14.00,2014-01-12 05:09:00,
2014-01-12 00:14:00,71.5,0.0,30.01,SW,218,0.0,5.0,0,0.00,,CLR,0.00,0.00,VWS V14.00,2014-01-12 05:14:00,
2014-01-12 00:19:00,71.6,0.0,30.01,SW,219,0.0,7.0,0,0.00,,CLR,0.00,0.00,VWS V14.00,2014-01-12 05:19:00,
2014-01-12 00:24:00,71.6,0.0,30.00,SW,219,1.0,2.0,0,0.00,,CLR,0.00,0.00,VWS V14.00,2014-01-12 05:24:00,
2014-01-12 00:29:00,71.6,0.0,30.01,SW,219,4.0,5.0,0,0.00,,CLR,0.00,0.00,VWS V14.00,2014-01-12 05:29:00,
2014-01-12 00:34:00,71.6,0.0,30.00,SW,221,5.0,6.0,0,0.00,,CLR,0.00,0.00,VWS V14.00,2014-01-12 05:34:00,
2014-01-12 00:39:00,71.7,0.0,30.00,SW,225,4.0,4.0,0,0.00,,CLR,0.00,0.00,VWS V14.00,2014-01-12 05:39:00,
2014-01-12 00:44:00,71.7,0.0,30.00,SW,220,0.0,6.0,0,0.00,,CLR,0.00,0.00,VWS V14.00,2014-01-12 05:44:00,
2014-01-12 00:49:00,71.6,0.0,30.00,SW,221,0.0,0.0,0,0.00,,CLR,0.00,0.00,VWS V14.00,2014-01-12 05:49:00,
2014-01-12 00:54:00,71.6,0.0,30.00,SW,221,2.0,4.0,0,0.00,,CLR,0.00,0.00,VWS V14.00,2014-01-12 05:54:00,
2014-01-12 00:59:00,71.6,0.0,30.00,SW,221,3.0,6.0,0,0.00,,CLR,0.00,0.00,VWS V14.00,2014-01-12 05:59:00,
2014-01-12 01:03:00,71.6,0.0,30.00,SW,221,0.0,2.0,0,0.00,,CLR,0.00,0.00,VWS V14.00,2014-01-12 06:03:00,
2014-01-12 01:08:00,71.6,0.0,29.99,SW,221,0.0,0.0,0,0.00,,CLR,0.00,0.00,VWS V14.00,2014-01-12 06:08:00,
2014-01-12 01:13:00,71.5,0.0,29.98,SW,221,0.0,0.0,0,0.00,,CLR,0.00,0.00,VWS V14.00,2014-01-12 06:13:00,
2014-01-12 01:18:00,71.5,0.0,29.98,SW,221,0.0,2.0,0,0.00,,CLR,0.00,0.00,VWS V14.00,2014-01-12 06:18:00,
2014-01-12 01:23:00,71.4,0.0,29.98,SW,221,0.0,0.0,0,0.00,,CLR,0.00,0.00,VWS V14.00,2014-01-12 06:23:00,
2014-01-12 01:28:00,71.4,0.0,29.98,SW,221,2.0,4.0,0,0.00,,CLR,0.00,0.00,VWS V14.00,2014-01-12 06:28:00,
2014-01-12 01:33:00,71.4,0.0,29.98,SW,221,0.0,4.0,0,0.00,,CLR,0.00,0.00,VWS V14.00,2014-01-12 06:33:00,
2014-01-12 01:38:00,71.4,0.0,29.98,SW,221,2.0,7.0,0,0.00,,CLR,0.00,0.00,VWS V14.00,2014-01-12 06:38:00,
2014-01-12 01:43:00,71.4,0.0,29.98,SW,221,4.0,5.0,0,0.00,,CLR,0.00,0.00,VWS V14.00,2014-01-12 06:43:00,
2014-01-12 01:48:00,71.5,0.0,29.98,SW,221,4.0,6.0,0,0.00,,CLR,0.00,0.00,VWS V14.00,2014-01-12 06:48:00,
2014-01-12 01:53:00,71.5,0.0,29.98,SW,222,4.0,7.0,0,0.00,,CLR,0.00,0.00,VWS V14.00,2014-01-12 06:53:00,
2014-01-12 01:58:00,71.6,0.0,29.98,SW,216,0.0,5.0,0,0.00,,CLR,0.00,0.00,VWS V14.00,2014-01-12 06:58:00,
2014-01-12 02:03:00,71.5,0.0,29.97,SW,217,0.0,4.0,0,0.00,,CLR,0.00,0.00,VWS V14.00,2014-01-12 07:03:00,
2014-01-12 02:08:00,71.6,0.0,29.97,SW,217,6.0,6.0,0,0.00,,CLR,0.00,0.00,VWS V14.00,2014-01-12 07:08:00,
2014-01-12 02:13:00,71.6,0.0,29.97,SSW,209,5.0,6.0,0,0.00,,CLR,0.00,0.00,VWS V14.00,2014-01-12 07:13:00,
2014-01-12 02:18:00,71.6,0.0,29.97,SSW,212,3.0,5.0,0,0.00,,CLR,0.00,0.00,VWS V14.00,2014-01-12 07:18:00,
2014-01-12 02:23:00,71.5,0.0,29.97,SSW,211,4.0,8.0,0,0.00,,CLR,0.00,0.00,VWS V14.00,2014-01-12 07:23:00,
2014-01-12 02:28:00,71.5,0.0,29.97,SW,215,3.0,5.0,0,0.00,,CLR,0.00,0.00,VWS V14.00,2014-01-12 07:28:00,
2014-01-12 02:33:00,71.5,0.0,29.98,SW,215,4.0,5.0,0,0.00,,CLR,0.00,0.00,VWS V14.00,2014-01-12 07:33:00,
2014-01-12 02:38:00,71.6,0.0,29.98,SW,226,6.0,6.0,0,0.00,,CLR,0.00,0.00,VWS V14.00,2014-01-12 07:38:00,
2014-01-12 02:43:00,71.6,0.0,29.98,SW,230,5.0,9.0,0,0.00,,CLR,0.00,0.00,VWS V14.00,2014-01-12 07:43:00,
2014-01-12 02:48:00,71.6,0.0,29.99,WSW,240,10.0,11.0,0,0.00,,CLR,0.00,0.00,VWS V14.00,2014-01-12 07:48:00,
2014-01-12 02:53:00,71.7,0.0,29.99,SW,232,9.0,12.0,0,0.00,,CLR,0.00,0.00,VWS V14.00,2014-01-12 07:53:00,
2014-01-12 02:58:00,71.5,0.0,29.99,SW,236,5.0,7.0,0,0.00,,CLR,0.00,0.00,VWS V14.00,2014-01-12 07:58:00,
2014-01-12 03:03:00,71.4,0.0,29.99,WSW,240,7.0,7.0,0,0.00,,CLR,0.00,0.00,VWS V14.00,2014-01-12 08:03:00,
2014-01-12 03:08:00,71.2,0.0,29.99,SW,232,1.0,4.0,0,0.00,,CLR,0.00,0.00,VWS V14.00,2014-01-12 08:08:00,
2014-01-12 03:13:00,71.1,0.0,29.98,WSW,238,4.0,9.0,0,0.00,,CLR,0.00,0.00,VWS V14.00,2014-01-12 08:13:00,
2014-01-12 03:18:00,71.0,0.0,29.99,WSW,239,2.0,6.0,0,0.00,,CLR,0.00,0.00,VWS V14.00,2014-01-12 08:18:00,
2014-01-12 03:23:00,70.9,0.0,29.99,WSW,242,6.0,6.0,0,0.00,,CLR,0.00,0.00,VWS V14.00,2014-01-12 08:23:00,
2014-01-12 03:28:00,70.8,0.0,29.99,WSW,244,3.0,6.0,0,0.00,,CLR,0.00,0.00,VWS V14.00,2014-01-12 08:28:00,
2014-01-12 03:33:00,70.8,0.0,29.99,WSW,244,0.0,4.0,0,0.00,,CLR,0.00,0.00,VWS V14.00,2014-01-12 08:33:00,
2014-01-12 03:38:00,70.8,0.0,29.98,WSW,244,0.0,3.0,0,0.00,,CLR,0.00,0.00,VWS V14.00,2014-01-12 08:38:00,
2014-01-12 03:43:00,70.8,0.0,29.99,WSW,244,5.0,5.0,0,0.00,,CLR,0.00,0.00,VWS V14.00,2014-01-12 08:43:00,
2014-01-12 03:48:00,70.7,0.0,29.99,WSW,244,2.0,3.0,0,0.00,,CLR,0.00,0.00,VWS V14.00,2014-01-12 08:48:00,
2014-01-12 03:53:00,70.7,0.0,29.99,WSW,244,0.0,4.0,0,0.00,,CLR,0.00,0.00,VWS V14.00,2014-01-12 08:53:00,
2014-01-12 03:58:00,70.7,0.0,29.99,WSW,244,3.0,3.0,0,0.00,,CLR,0.00,0.00,VWS V14.00,2014-01-12 08:58:00,
2014-01-12 04:03:00,70.7,0.0,29.98,WSW,244,3.0,3.0,0,0.00,,CLR,0.00,0.00,VWS V14.00,2014-01-12 09:03:00,
2014-01-12 04:08:00,70.7,0.0,29.99,WSW,244,0.0,0.0,0,0.00,,CLR,0.00,0.00,VWS V14.00,2014-01-12 09:08:00,
2014-01-12 04:13:00,70.7,0.0,29.99,WSW,244,0.0,0.0,0,0.00,,CLR,0.00,0.00,VWS V14.00,2014-01-12 09:13:00,
2014-01-12 04:18:00,70.7,0.0,29.98,WSW,244,0.0,5.0,0,0.00,,CLR,0.00,0.00,VWS V14.00,2014-01-12 09:18:00,
2014-01-12 04:23:00,70.7,0.0,29.98,WSW,244,0.0,0.0,0,0.00,,CLR,0.00,0.00,VWS V14.00,2014-01-12 09:23:00,
2014-01-12 04:28:00,70.6,0.0,29.98,WSW,244,0.0,0.0,0,0.00,,CLR,0.00,0.00,VWS V14.00,2014-01-12 09:28:00,
2014-01-12 04:33:00,70.6,0.0,29.98,WSW,244,0.0,0.0,0,0.00,,CLR,0.00,0.00,VWS V14.00,2014-01-12 09:33:00,
2014-01-12 04:38:00,70.6,0.0,29.98,WSW,244,0.0,0.0,0,0.00,,CLR,0.00,0.00,VWS V14.00,2014-01-12 09:38:00,
2014-01-12 04:43:00,70.6,0.0,29.98,WSW,244,0.0,1.0,0,0.00,,CLR,0.00,0.00,VWS V14.00,2014-01-12 09:43:00,
2014-01-12 04:48:00,70.6,0.0,29.98,WSW,244,0.0,3.0,0,0.00,,CLR,0.00,0.00,VWS V14.00,2014-01-12 09:48:00,
2014-01-12 04:53:00,70.6,0.0,29.98,WSW,244,2.0,3.0,0,0.00,,CLR,0.00,0.00,VWS V14.00,2014-01-12 09:53:00,
2014-01-12 04:58:00,70.5,0.0,29.98,WSW,244,3.0,3.0,0,0.00,,CLR,0.00,0.00,VWS V14.00,2014-01-12 09:58:00,
2014-01-12 05:03:00,70.4,0.0,29.98,WSW,244,0.0,4.0,0,0.00,,CLR,0.00,0.00,VWS V14.00,2014-01-12 10:03:00,
2014-01-12 05:08:00,70.4,0.0,29.99,WSW,244,1.0,4.0,0,0.00,,CLR,0.00,0.00,VWS V14.00,2014-01-12 10:08:00,
2014-01-12 05:13:00,70.3,0.0,29.99,WSW,244,5.0,6.0,0,0.00,,CLR,0.00,0.00,VWS V14.00,2014-01-12 10:13:00,
2014-01-12 05:18:00,70.3,0.0,29.99,WSW,244,0.0,0.0,0,0.00,,CLR,0.00,0.00,VWS V14.00,2014-01-12 10:18:00,
2014-01-12 05:23:00,70.3,0.0,29.99,WSW,244,2.0,3.0,0,0.00,,CLR,0.00,0.00,VWS V14.00,2014-01-12 10:23:00,
2014-01-12 05:28:00,70.3,0.0,29.99,WSW,244,0.0,0.0,0,0.00,,CLR,0.00,0.00,VWS V14.00,2014-01-12 10:28:00,
2014-01-12 05:33:00,70.2,0.0,29.99,WSW,244,0.0,0.0,0,0.00,,CLR,0.00,0.00,VWS V14.00,2014-01-12 10:33:00,
2014-01-12 05:38:00,70.1,0.0,30.00,WSW,244,0.0,2.0,0,0.00,,CLR,0.00,0.00,VWS V14.00,2014-01-12 10:38:00,
2014-01-12 05:43:00,70.1,0.0,29.99,WSW,244,0.0,0.0,0,0.00,,CLR,0.00,0.00,VWS V14.00,2014-01-12 10:43:00,
2014-01-12 05:48:00,69.9,0.0,30.00,WSW,244,0.0,4.0,0,0.00,,CLR,0.00,0.00,VWS V14.00,2014-01-12 10:48:00,
2014-01-12 05:53:00,69.9,0.0,30.01,WSW,244,3.0,3.0,0,0.00,,CLR,0.00,0.00,VWS V14.00,2014-01-12 10:53:00,
2014-01-12 05:58:00,69.8,0.0,30.01,WSW,244,1.0,5.0,0,0.00,,CLR,0.00,0.00,VWS V14.00,2014-01-12 10:58:00,
2014-01-12 06:03:00,69.7,0.0,30.01,WSW,244,2.0,5.0,0,0.00,,CLR,0.00,0.00,VWS V14.00,2014-01-12 11:03:00,
2014-01-12 06:08:00,69.7,0.0,30.01,WSW,244,0.0,0.0,0,0.00,,CLR,0.00,0.00,VWS V14.00,2014-01-12 11:08:00,
2014-01-12 06:13:00,69.6,0.0,30.01,WSW,244,3.0,5.0,0,0.00,,CLR,0.00,0.00,VWS V14.00,2014-01-12 11:13:00,
2014-01-12 06:18:00,69.5,0.0,30.01,WSW,246,0.0,3.0,0,0.00,,CLR,0.00,0.00,VWS V14.00,2014-01-12 11:18:00,
2014-01-12 06:23:00,69.5,0.0,30.01,WSW,246,0.0,0.0,0,0.00,,CLR,0.00,0.00,VWS V14.00,2014-01-12 11:23:00,
2014-01-12 06:28:00,69.4,0.0,30.01,WSW,246,3.0,5.0,0,0.00,,CLR,0.00,0.00,VWS V14.00,2014-01-12 11:28:00,
2014-01-12 06:33:00,69.4,0.0,30.01,WSW,248,6.0,6.0,0,0.00,,CLR,0.00,0.00,VWS V14.00,2014-01-12 11:33:00,
2014-01-12 06:38:00,69.3,0.0,30.01,WSW,257,4.0,6.0,0,0.00,,CLR,0.00,0.00,VWS V14.00,2014-01-12 11:38:00,
2014-01-12 06:43:00,69.2,0.0,30.02,WNW,284,6.0,7.0,0,0.00,,CLR,0.00,0.00,VWS V14.00,2014-01-12 11:43:00,
2014-01-12 06:48:00,69.1,0.0,30.02,WNW,294,5.0,5.0,0,0.00,,CLR,0.00,0.00,VWS V14.00,2014-01-12 11:48:00,
2014-01-12 06:53:00,69.0,0.0,30.02,WNW,300,2.0,10.0,0,0.00,,CLR,0.00,0.00,VWS V14.00,2014-01-12 11:53:00,
2014-01-12 06:58:00,68.8,0.0,30.02,WNW,296,3.0,9.0,0,0.00,,CLR,0.00,0.00,VWS V14.00,2014-01-12 11:58:00,
2014-01-12 07:03:00,68.6,0.0,30.03,WNW,302,6.0,10.0,0,0.00,,CLR,0.00,0.00,VWS V14.00,2014-01-12 12:03:00,
2014-01-12 07:08:00,68.3,0.0,30.03,NW,304,5.0,7.0,0,0.00,,CLR,0.00,0.00,VWS V14.00,2014-01-12 12:08:00,
2014-01-12 07:13:00,68.1,0.0,30.03,NW,308,4.0,8.0,0,0.00,,CLR,0.00,0.00,VWS V14.00,2014-01-12 12:13:00,
2014-01-12 07:18:00,67.8,0.0,30.04,NW,310,3.0,6.0,0,0.00,,CLR,0.00,0.00,VWS V14.00,2014-01-12 12:18:00,
2014-01-12 07:23:00,67.5,0.0,30.04,NW,310,7.0,7.0,0,0.00,,CLR,0.00,0.00,VWS V14.00,2014-01-12 12:23:00,
2014-01-12 07:28:00,67.1,0.0,30.04,NW,318,2.0,5.0,0,0.00,,CLR,0.00,5.00,VWS V14.00,2014-01-12 12:28:00,
2014-01-12 07:33:00,66.9,0.0,30.05,NW,321,5.0,10.0,0,0.00,,CLR,0.00,7.00,VWS V14.00,2014-01-12 12:33:00,
2014-01-12 07:38:00,66.8,0.0,30.05,NNW,331,5.0,12.0,0,0.00,,CLR,0.00,9.00,VWS V14.00,2014-01-12 12:38:00,
2014-01-12 07:43:00,66.7,0.0,30.06,NNW,333,6.0,12.0,0,0.00,,CLR,0.00,11.00,VWS V14.00,2014-01-12 12:43:00,
2014-01-12 07:48:00,66.6,0.0,30.06,WNW,302,6.0,9.0,0,0.00,,CLR,0.00,19.00,VWS V14.00,2014-01-12 12:48:00,
2014-01-12 07:53:00,66.6,0.0,30.06,NW,314,10.0,10.0,0,0.00,,CLR,0.00,37.00,VWS V14.00,2014-01-12 12:53:00,
2014-01-12 07:58:00,66.6,0.0,30.06,NW,315,5.0,10.0,0,0.00,,CLR,0.00,42.00,VWS V14.00,2014-01-12 12:58:00,
2014-01-12 08:03:00,66.6,0.0,30.06,NW,320,9.0,10.0,0,0.00,,CLR,0.00,121.00,VWS V14.00,2014-01-12 13:03:00,
2014-01-12 08:08:00,66.7,0.0,30.07,NNW,329,5.0,12.0,0,0.00,,CLR,0.00,105.00,VWS V14.00,2014-01-12 13:08:00,
2014-01-12 08:13:00,66.8,0.0,30.07,NNW,333,3.0,10.0,0,0.00,,CLR,0.00,155.00,VWS V14.00,2014-01-12 13:13:00,
2014-01-12 08:18:00,66.9,0.0,30.08,NNW,330,6.0,6.0,0,0.00,,CLR,0.00,169.00,VWS V14.00,2014-01-12 13:18:00,
2014-01-12 08:24:00,67.0,0.0,30.08,NNW,338,4.0,9.0,0,0.00,,CLR,0.00,155.00,VWS V14.00,2014-01-12 13:24:00,
2014-01-12 08:29:00,67.1,0.0,30.08,NW,326,7.0,11.0,0,0.00,,CLR,0.00,146.00,VWS V14.00,2014-01-12 13:29:00,
2014-01-12 08:34:00,67.2,0.0,30.08,NW,309,2.0,7.0,0,0.00,,FEW100,0.00,100.00,VWS V14.00,2014-01-12 13:34:00,
2014-01-12 08:39:00,67.2,0.0,30.08,NNW,329,9.0,13.0,0,0.00,,FEW100,0.00,63.00,VWS V14.00,2014-01-12 13:39:00,
2014-01-12 08:44:00,67.1,0.0,30.09,North,355,9.0,13.0,0,0.00,,FEW100,0.00,74.00,VWS V14.00,2014-01-12 13:44:00,
2014-01-12 08:49:00,67.0,0.0,30.08,NNW,331,8.0,9.0,0,0.00,,FEW100,0.00,97.00,VWS V14.00,2014-01-12 13:49:00,
2014-01-12 08:54:00,67.0,0.0,30.09,NNW,342,8.0,12.0,0,0.00,,FEW100,0.00,83.00,VWS V14.00,2014-01-12 13:54:00,
2014-01-12 08:59:00,67.0,0.0,30.09,NW,323,5.0,12.0,0,0.00,,FEW100,0.00,97.00,VWS V14.00,2014-01-12 13:59:00,
2014-01-12 09:04:00,67.0,0.0,30.09,NNW,338,4.0,7.0,0,0.00,,FEW100,0.00,107.00,VWS V14.00,2014-01-12 14:04:00,
2014-01-12 09:09:00,67.3,0.0,30.09,NNW,339,9.0,9.0,0,0.00,,FEW100,0.00,132.00,VWS V14.00,2014-01-12 14:09:00,
2014-01-12 09:14:00,67.4,0.0,30.09,NW,323,7.0,7.0,0,0.00,,FEW100,0.00,91.00,VWS V14.00,2014-01-12 14:14:00,
2014-01-12 09:19:00,67.6,0.0,30.10,NW,326,4.0,11.0,0,0.00,,FEW100,0.00,139.00,VWS V14.00,2014-01-12 14:19:00,
2014-01-12 09:24:00,67.9,0.0,30.10,NW,322,11.0,12.0,0,0.00,,FEW100,0.00,139.00,VWS V14.00,2014-01-12 14:24:00,
2014-01-12 09:29:00,68.3,0.0,30.10,NW,317,9.0,11.0,0,0.00,,FEW100,0.00,139.00,VWS V14.00,2014-01-12 14:29:00,
2014-01-12 09:34:00,68.6,0.0,30.10,NW,313,9.0,9.0,0,0.00,,FEW100,0.00,148.00,VWS V14.00,2014-01-12 14:34:00,
2014-01-12 09:39:00,68.9,0.0,30.11,NW,323,13.0,15.0,0,0.00,,FEW100,0.00,149.00,VWS V14.00,2014-01-12 14:39:00,
2014-01-12 09:44:00,69.1,-15.0,30.11,NNW,336,6.0,11.0,3,0.00,,FEW100,0.00,149.00,VWS V14.00,2014-01-12 14:44:00,
2014-01-12 09:49:00,69.2,-9.2,30.10,NW,321,10.0,17.0,4,0.00,,FEW100,0.00,149.00,VWS V14.00,2014-01-12 14:49:00,
2014-01-12 09:54:00,69.3,-4.5,30.10,NNW,330,14.0,16.0,5,0.00,,FEW100,0.00,149.00,VWS V14.00,2014-01-12 14:54:00,
2014-01-12 09:59:00,69.4,-0.6,30.11,NW,324,7.0,13.0,6,0.00,,FEW100,0.00,149.00,VWS V14.00,2014-01-12 14:59:00,
2014-01-12 10:04:00,69.6,24.2,30.11,North,5,9.0,12.0,18,0.00,,FEW100,0.00,151.00,VWS V14.00,2014-01-12 15:04:00,
2014-01-12 10:09:00,69.9,24.5,30.11,NW,323,6.0,10.0,18,0.00,,FEW100,0.00,151.00,VWS V14.00,2014-01-12 15:09:00,
2014-01-12 10:14:00,70.2,26.0,30.11,WNW,300,4.0,10.0,19,0.00,,FEW100,0.00,151.00,VWS V14.00,2014-01-12 15:14:00,
2014-01-12 10:19:00,70.4,29.8,30.11,NW,319,10.0,13.0,22,0.00,,FEW100,0.00,151.00,VWS V14.00,2014-01-12 15:19:00,
2014-01-12 10:24:00,70.6,37.7,30.11,NW,323,4.0,5.0,30,0.00,,FEW100,0.00,151.00,VWS V14.00,2014-01-12 15:24:00,
2014-01-12 10:29:00,70.9,40.4,30.11,NW,311,3.0,9.0,33,0.00,,FEW100,0.00,151.00,VWS V14.00,2014-01-12 15:29:00,
2014-01-12 10:34:00,71.0,42.0,30.10,NNW,329,10.0,10.0,35,0.00,,CLR,0.00,149.00,VWS V14.00,2014-01-12 15:34:00,
2014-01-12 10:39:00,71.2,46.3,30.11,NNW,331,6.0,7.0,41,0.00,,CLR,0.00,148.00,VWS V14.00,2014-01-12 15:39:00,
2014-01-12 10:44:00,71.3,46.4,30.10,NW,319,7.0,7.0,41,0.00,,CLR,0.00,148.00,VWS V14.00,2014-01-12 15:44:00,
2014-01-12 10:49:00,71.4,46.5,30.10,NNW,342,6.0,8.0,41,0.00,,CLR,0.00,146.00,VWS V14.00,2014-01-12 15:49:00,
2014-01-12 10:54:00,71.4,45.8,30.10,NW,304,6.0,9.0,40,0.00,,CLR,0.00,146.00,VWS V14.00,2014-01-12 15:54:00,
2014-01-12 10:59:00,71.6,47.3,30.10,NW,316,8.0,12.0,42,0.00,,CLR,0.00,142.00,VWS V14.00,2014-01-12 15:59:00,
2014-01-12 11:04:00,71.5,47.2,30.10,NW,319,4.0,7.0,42,0.00,,CLR,0.00,142.00,VWS V14.00,2014-01-12 16:04:00,
2014-01-12 11:09:00,71.8,48.1,30.10,NNW,328,8.0,9.0,43,0.00,,CLR,0.00,141.00,VWS V14.00,2014-01-12 16:09:00,
2014-01-12 11:14:00,72.0,48.3,30.09,NW,325,6.0,9.0,43,0.00,,CLR,0.00,137.00,VWS V14.00,2014-01-12 16:14:00,
2014-01-12 11:19:00,72.0,49.5,30.09,NNW,347,10.0,11.0,45,0.00,,CLR,0.00,135.00,VWS V14.00,2014-01-12 16:19:00,
2014-01-12 11:24:00,72.0,48.3,30.09,NW,319,3.0,11.0,43,0.00,,CLR,0.00,134.00,VWS V14.00,2014-01-12 16:24:00,
2014-01-12 11:29:00,72.3,48.6,30.09,NNW,327,5.0,11.0,43,0.00,,CLR,0.00,132.00,VWS V14.00,2014-01-12 16:29:00,
2014-01-12 11:34:00,72.4,51.0,30.09,NNW,344,6.0,6.0,47,0.00,,CLR,0.00,130.00,VWS V14.00,2014-01-12 16:34:00,
2014-01-12 11:39:00,72.6,52.9,30.09,NNW,333,7.0,8.0,50,0.00,,CLR,0.00,128.00,VWS V14.00,2014-01-12 16:39:00,
2014-01-12 11:44:00,72.8,53.1,30.09,NW,321,1.0,6.0,50,0.00,,CLR,0.00,127.00,VWS V14.00,2014-01-12 16:44:00,
2014-01-12 11:49:00,72.7,55.1,30.09,WNW,296,5.0,7.0,54,0.00,,CLR,0.00,127.00,VWS V14.00,2014-01-12 16:49:00,
2014-01-12 11:54:00,72.7,55.1,30.09,NW,318,2.0,9.0,54,0.00,,CLR,0.00,125.00,VWS V14.00,2014-01-12 16:54:00,
2014-01-12 11:59:00,72.9,55.3,30.09,NNW,346,4.0,7.0,54,0.00,,CLR,0.00,125.00,VWS V14.00,2014-01-12 16:59:00,
2014-01-12 12:04:00,73.1,55.5,30.08,NW,324,5.0,10.0,54,0.00,,CLR,0.00,123.00,VWS V14.00,2014-01-12 17:04:00,
2014-01-12 12:09:00,73.5,55.9,30.08,NW,320,5.0,9.0,54,0.00,,CLR,0.00,121.00,VWS V14.00,2014-01-12 17:09:00,
2014-01-12 12:14:00,73.4,57.3,30.08,North,355,7.0,11.0,57,0.00,,CLR,0.00,121.00,VWS V14.00,2014-01-12 17:14:00,
2014-01-12 12:19:00,73.4,56.8,30.07,NW,321,3.0,7.0,56,0.00,,CLR,0.00,114.00,VWS V14.00,2014-01-12 17:19:00,
2014-01-12 12:24:00,73.5,57.3,30.07,NNW,339,5.0,10.0,57,0.00,,CLR,0.00,107.00,VWS V14.00,2014-01-12 17:24:00,
2014-01-12 12:29:00,73.7,57.0,30.07,NNW,338,4.0,5.0,56,0.00,,CLR,0.00,102.00,VWS V14.00,2014-01-12 17:29:00,
2014-01-12 12:34:00,73.7,57.5,30.07,NNW,339,3.0,6.0,57,0.00,,CLR,0.00,102.00,VWS V14.00,2014-01-12 17:34:00,
2014-01-12 12:39:00,73.8,57.6,30.07,NNW,331,2.0,6.0,57,0.00,,CLR,0.00,104.00,VWS V14.00,2014-01-12 17:39:00,
2014-01-12 12:44:00,73.9,57.7,30.07,NNW,331,0.0,4.0,57,0.00,,CLR,0.00,104.00,VWS V14.00,2014-01-12 17:44:00,
2014-01-12 12:49:00,73.9,57.7,30.06,NNW,331,3.0,3.0,57,0.00,,CLR,0.00,104.00,VWS V14.00,2014-01-12 17:49:00,
2014-01-12 12:54:00,74.2,58.0,30.06,NW,325,0.0,0.0,57,0.00,,CLR,0.00,104.00,VWS V14.00,2014-01-12 17:54:00,
2014-01-12 12:59:00,74.4,58.2,30.06,NW,319,3.0,5.0,57,0.00,,CLR,0.00,105.00,VWS V14.00,2014-01-12 17:59:00,
2014-01-12 13:04:00,74.6,58.4,30.06,NW,319,1.0,1.0,57,0.00,,CLR,0.00,105.00,VWS V14.00,2014-01-12 18:04:00,
2014-01-12 13:09:00,74.6,58.4,30.06,NW,325,3.0,3.0,57,0.00,,CLR,0.00,105.00,VWS V14.00,2014-01-12 18:09:00,
2014-01-12 13:14:00,74.7,58.5,30.05,NW,326,4.0,6.0,57,0.00,,CLR,0.00,105.00,VWS V14.00,2014-01-12 18:14:00,
2014-01-12 13:19:00,74.8,58.6,30.05,NW,325,3.0,5.0,57,0.00,,CLR,0.00,105.00,VWS V14.00,2014-01-12 18:19:00,
2014-01-12 13:24:00,75.0,58.3,30.05,NNW,339,4.0,7.0,56,0.00,,CLR,0.00,105.00,VWS V14.00,2014-01-12 18:24:00,
2014-01-12 13:29:00,75.2,58.4,30.05,NNW,336,7.0,9.0,56,0.00,,CLR,0.00,105.00,VWS V14.00,2014-01-12 18:29:00,
2014-01-12 13:34:00,75.3,58.5,30.05,NNW,338,4.0,4.0,56,0.00,,CLR,0.00,105.00,VWS V14.00,2014-01-12 18:34:00,
2014-01-12 13:39:00,75.2,58.4,30.05,NNW,346,8.0,11.0,56,0.00,,CLR,0.00,104.00,VWS V14.00,2014-01-12 18:39:00,
2014-01-12 13:44:00,75.2,57.9,30.05,NNW,348,5.0,10.0,55,0.00,,CLR,0.00,105.00,VWS V14.00,2014-01-12 18:44:00,
2014-01-12 13:49:00,75.3,58.5,30.04,North,355,8.0,10.0,56,0.00,,CLR,0.00,107.00,VWS V14.00,2014-01-12 18:49:00,
2014-01-12 13:54:00,75.4,58.1,30.04,NNE,19,8.0,10.0,55,0.00,,CLR,0.00,105.00,VWS V14.00,2014-01-12 18:54:00,
2014-01-12 13:59:00,75.5,58.2,30.04,North,355,12.0,12.0,55,0.00,,CLR,0.00,105.00,VWS V14.00,2014-01-12 18:59:00,
2014-01-12 14:04:00,75.7,58.4,30.04,NNE,20,7.0,9.0,55,0.00,,CLR,0.00,105.00,VWS V14.00,2014-01-12 19:04:00,
2014-01-12 14:09:00,75.7,57.9,30.04,NNE,20,4.0,4.0,54,0.00,,CLR,0.00,107.00,VWS V14.00,2014-01-12 19:09:00,
2014-01-12 14:14:00,76.0,58.7,30.04,NNW,348,4.0,10.0,55,0.00,,CLR,0.00,105.00,VWS V14.00,2014-01-12 19:14:00,
2014-01-12 14:19:00,76.2,59.4,30.04,North,5,3.0,7.0,56,0.00,,CLR,0.00,98.00,VWS V14.00,2014-01-12 19:19:00,
2014-01-12 14:24:00,76.0,59.2,30.04,North,11,0.0,0.0,56,0.00,,CLR,0.00,97.00,VWS V14.00,2014-01-12 19:24:00,
2014-01-12 14:29:00,75.9,59.6,30.03,North,355,8.0,10.0,57,0.00,,CLR,0.00,105.00,VWS V14.00,2014-01-12 19:29:00,
2014-01-12 14:34:00,76.1,59.8,30.04,North,355,0.0,1.0,57,0.00,,CLR,0.00,105.00,VWS V14.00,2014-01-12 19:34:00,
2014-01-12 14:39:00,76.3,59.5,30.03,NNE,15,4.0,6.0,56,0.00,,CLR,0.00,93.00,VWS V14.00,2014-01-12 19:39:00,
2014-01-12 14:44:00,76.0,59.2,30.03,ENE,59,4.0,6.0,56,0.00,,CLR,0.00,98.00,VWS V14.00,2014-01-12 19:44:00,
2014-01-12 14:49:00,75.9,59.1,30.03,NNE,16,7.0,10.0,56,0.00,,CLR,0.00,100.00,VWS V14.00,2014-01-12 19:49:00,
2014-01-12 14:54:00,76.1,59.3,30.03,NNE,17,6.0,6.0,56,0.00,,CLR,0.00,95.00,VWS V14.00,2014-01-12 19:54:00,
2014-01-12 14:59:00,75.9,59.1,30.03,NE,49,4.0,7.0,56,0.00,,CLR,0.00,90.00,VWS V14.00,2014-01-12 19:59:00,
2014-01-12 15:04:00,75.7,58.9,30.04,NE,51,1.0,7.0,56,0.00,,CLR,0.00,97.00,VWS V14.00,2014-01-12 20:04:00,
2014-01-12 15:09:00,75.7,59.4,30.03,NE,55,5.0,5.0,57,0.00,,CLR,0.00,95.00,VWS V14.00,2014-01-12 20:09:00,
2014-01-12 15:14:00,75.7,59.4,30.03,NE,44,4.0,8.0,57,0.00,,CLR,0.00,91.00,VWS V14.00,2014-01-12 20:14:00,
2014-01-12 15:19:00,76.0,59.7,30.03,ENE,63,5.0,13.0,57,0.00,,CLR,0.00,84.00,VWS V14.00,2014-01-12 20:19:00,
2014-01-12 15:24:00,75.7,58.4,30.04,ENE,67,4.0,7.0,55,0.00,,CLR,0.00,86.00,VWS V14.00,2014-01-12 20:24:00,
2014-01-12 15:29:00,75.1,57.8,30.04,ENE,74,6.0,13.0,55,0.00,,CLR,0.00,81.00,VWS V14.00,2014-01-12 20:29:00,
2014-01-12 15:34:00,74.8,57.1,30.04,East,80,11.0,12.0,54,0.00,,CLR,0.00,74.00,VWS V14.00,2014-01-12 20:34:00,
2014-01-12 15:39:00,74.4,56.2,30.04,ENE,65,5.0,11.0,53,0.00,,CLR,0.00,76.00,VWS V14.00,2014-01-12 20:39:00,
2014-01-12 15:44:00,74.2,56.0,30.05,NE,49,7.0,11.0,53,0.00,,CLR,0.00,72.00,VWS V14.00,2014-01-12 20:44:00,
2014-01-12 15:49:00,73.9,56.7,30.05,ENE,74,6.0,14.0,55,0.00,,CLR,0.00,69.00,VWS V14.00,2014-01-12 20:49:00,
2014-01-12 15:54:00,73.8,56.1,30.05,ENE,66,9.0,11.0,54,0.00,,CLR,0.00,67.00,VWS V14.00,2014-01-12 20:54:00,
2014-01-12 15:59:00,73.5,56.4,30.05,ENE,63,12.0,12.0,55,0.00,,CLR,0.00,63.00,VWS V14.00,2014-01-12 20:59:00,
2014-01-12 16:04:00,73.2,56.1,30.05,ENE,76,5.0,13.0,55,0.00,,CLR,0.00,62.00,VWS V14.00,2014-01-12 21:04:00,
2014-01-12 16:09:00,73.0,55.9,30.05,NE,55,9.0,12.0,55,0.00,,CLR,0.00,58.00,VWS V14.00,2014-01-12 21:09:00,
2014-01-12 16:14:00,72.9,55.8,30.06,East,88,10.0,14.0,55,0.00,,CLR,0.00,56.00,VWS V14.00,2014-01-12 21:14:00,
2014-01-12 16:19:00,72.8,55.7,30.06,ENE,65,11.0,12.0,55,0.00,,CLR,0.00,54.00,VWS V14.00,2014-01-12 21:19:00,
2014-01-12 16:24:00,72.7,55.6,30.06,ENE,63,6.0,13.0,55,0.00,,CLR,0.00,51.00,VWS V14.00,2014-01-12 21:24:00,
2014-01-12 16:29:00,72.8,55.2,30.06,NE,56,5.0,11.0,54,0.00,,CLR,0.00,49.00,VWS V14.00,2014-01-12 21:29:00,
2014-01-12 16:34:00,72.6,55.5,30.06,ENE,57,5.0,10.0,55,0.00,,CLR,0.00,47.00,VWS V14.00,2014-01-12 21:34:00,
2014-01-12 16:39:00,72.5,55.4,30.07,NE,44,7.0,12.0,55,0.00,,CLR,0.00,44.00,VWS V14.00,2014-01-12 21:39:00,
2014-01-12 16:44:00,72.5,55.4,30.07,NE,54,3.0,14.0,55,0.00,,CLR,0.00,42.00,VWS V14.00,2014-01-12 21:44:00,
2014-01-12 16:49:00,72.4,55.3,30.07,ENE,74,12.0,12.0,55,0.00,,CLR,0.00,37.00,VWS V14.00,2014-01-12 21:49:00,
2014-01-12 16:54:00,72.4,54.8,30.07,ENE,57,4.0,7.0,54,0.00,,CLR,0.00,35.00,VWS V14.00,2014-01-12 21:54:00,
2014-01-12 16:59:00,72.3,55.2,30.07,ENE,65,6.0,9.0,55,0.00,,CLR,0.00,30.00,VWS V14.00,2014-01-12 21:59:00,
2014-01-12 17:04:00,72.2,54.1,30.07,ENE,63,7.0,9.0,53,0.00,,CLR,0.00,28.00,VWS V14.00,2014-01-12 22:04:00,
2014-01-12 17:09:00,72.2,54.1,30.07,NNE,33,6.0,10.0,53,0.00,,CLR,0.00,25.00,VWS V14.00,2014-01-12 22:09:00,
2014-01-12 17:14:00,72.0,54.0,30.07,NNE,29,6.0,15.0,53,0.00,,CLR,0.00,21.00,VWS V14.00,2014-01-12 22:14:00,
2014-01-12 17:19:00,71.8,53.2,30.08,NE,38,10.0,10.0,52,0.00,,CLR,0.00,19.00,VWS V14.00,2014-01-12 22:19:00,
2014-01-12 17:24:00,71.7,52.6,30.08,NNE,31,8.0,11.0,51,0.00,,CLR,0.00,16.00,VWS V14.00,2014-01-12 22:24:00,
2014-01-12 17:29:00,71.6,52.5,30.08,NE,46,9.0,11.0,51,0.00,,CLR,0.00,12.00,VWS V14.00,2014-01-12 22:29:00,
2014-01-12 17:34:00,71.4,51.8,30.08,NNE,31,4.0,10.0,50,0.00,,CLR,0.00,7.00,VWS V14.00,2014-01-12 22:34:00,
2014-01-12 17:39:00,71.3,51.2,30.08,NNE,30,6.0,7.0,49,0.00,,CLR,0.00,5.00,VWS V14.00,2014-01-12 22:39:00,
2014-01-12 17:44:00,71.1,50.4,30.08,NNE,30,3.0,5.0,48,0.00,,CLR,0.00,0.00,VWS V14.00,2014-01-12 22:44:00,
2014-01-12 17:49:00,70.9,49.7,30.08,NNE,29,6.0,6.0,47,0.00,,CLR,0.00,0.00,VWS V14.00,2014-01-12 22:49:00,
2014-01-12 17:54:00,70.7,48.9,30.08,NNE,29,5.0,9.0,46,0.00,,CLR,0.00,0.00,VWS V14.00,2014-01-12 22:54:00,
2014-01-12 17:59:00,70.5,48.2,30.09,NNE,28,3.0,6.0,45,0.00,,CLR,0.00,0.00,VWS V14.00,2014-01-12 22:59:00,
2014-01-12 18:04:00,70.4,47.5,30.09,NNE,28,3.0,5.0,44,0.00,,CLR,0.00,0.00,VWS V14.00,2014-01-12 23:04:00,
2014-01-12 18:09:00,70.3,47.4,30.09,NNE,28,3.0,5.0,44,0.00,,CLR,0.00,0.00,VWS V14.00,2014-01-12 23:09:00,
2014-01-12 18:14:00,70.2,46.1,30.08,NNE,26,4.0,5.0,42,0.00,,CLR,0.00,0.00,VWS V14.00,2014-01-12 23:14:00,
2014-01-12 18:19:00,70.0,45.9,30.09,NNE,27,3.0,5.0,42,0.00,,CLR,0.00,0.00,VWS V14.00,2014-01-12 23:19:00,
2014-01-12 18:24:00,69.9,45.2,30.09,NNE,27,0.0,3.0,41,0.00,,CLR,0.00,0.00,VWS V14.00,2014-01-12 23:24:00,
2014-01-12 18:29:00,69.7,44.3,30.09,NNE,27,0.0,0.0,40,0.00,,CLR,0.00,0.00,VWS V14.00,2014-01-12 23:29:00,
2014-01-12 18:34:00,69.5,42.8,30.09,NNE,27,0.0,0.0,38,0.00,,CLR,0.00,0.00,VWS V14.00,2014-01-12 23:34:00,
2014-01-12 18:39:00,69.3,41.9,30.09,NNE,27,2.0,3.0,37,0.00,,CLR,0.00,0.00,VWS V14.00,2014-01-12 23:39:00,
2014-01-12 18:44:00,69.1,41.0,30.09,NNE,27,3.0,3.0,36,0.00,,CLR,0.00,0.00,VWS V14.00,2014-01-12 23:44:00,
2014-01-12 18:49:00,69.0,41.0,30.09,NNE,27,4.0,5.0,36,0.00,,CLR,0.00,0.00,VWS V14.00,2014-01-12 23:49:00,
2014-01-12 18:54:00,68.9,40.2,30.09,NNE,27,0.0,1.0,35,0.00,,CLR,0.00,0.00,VWS V14.00,2014-01-12 23:54:00,
2014-01-12 18:59:00,68.7,39.2,30.09,NNE,27,0.0,0.0,34,0.00,,CLR,0.00,0.00,VWS V14.00,2014-01-12 23:59:00,
2014-01-12 19:04:00,68.6,38.4,30.10,NNE,27,0.0,0.0,33,0.00,,CLR,0.00,0.00,VWS V14.00,2014-01-13 00:04:00,
2014-01-12 19:09:00,68.5,36.7,30.09,NNE,27,1.0,1.0,31,0.00,,CLR,0.00,0.00,VWS V14.00,2014-01-13 00:09:00,
2014-01-12 19:14:00,68.3,36.5,30.10,NNE,27,0.0,1.0,31,0.00,,CLR,0.00,0.00,VWS V14.00,2014-01-13 00:14:00,
2014-01-12 19:19:00,68.2,35.6,30.10,NNE,27,0.0,3.0,30,0.00,,CLR,0.00,0.00,VWS V14.00,2014-01-13 00:19:00,
2014-01-12 19:24:00,68.2,35.6,30.10,NNE,27,2.0,3.0,30,0.00,,CLR,0.00,0.00,VWS V14.00,2014-01-13 00:24:00,
2014-01-12 19:29:00,68.0,34.6,30.10,NNE,27,0.0,0.0,29,0.00,,CLR,0.00,0.00,VWS V14.00,2014-01-13 00:29:00,
2014-01-12 19:34:00,67.9,32.7,30.10,NNE,27,0.0,0.0,27,0.00,,CLR,0.00,0.00,VWS V14.00,2014-01-13 00:34:00,
2014-01-12 19:39:00,67.8,32.6,30.10,NNE,27,0.0,0.0,27,0.00,,CLR,0.00,0.00,VWS V14.00,2014-01-13 00:39:00,
2014-01-12 19:44:00,67.6,31.5,30.10,NNE,27,0.0,0.0,26,0.00,,CLR,0.00,0.00,VWS V14.00,2014-01-13 00:44:00,
2014-01-12 19:49:00,67.5,30.5,30.10,NNE,27,0.0,2.0,25,0.00,,CLR,0.00,0.00,VWS V14.00,2014-01-13 00:49:00,
2014-01-12 19:54:00,67.3,29.3,30.11,NNE,27,0.0,1.0,24,0.00,,CLR,0.00,0.00,VWS V14.00,2014-01-13 00:54:00,
2014-01-12 19:59:00,67.2,28.2,30.11,NNE,27,0.0,0.0,23,0.00,,CLR,0.00,0.00,VWS V14.00,2014-01-13 00:59:00,
2014-01-12 20:04:00,67.0,24.6,30.11,NNE,27,0.0,0.0,20,0.00,,CLR,0.00,0.00,VWS V14.00,2014-01-13 01:04:00,
2014-01-12 20:09:00,66.8,23.2,30.11,NNE,27,0.0,0.0,19,0.00,,CLR,0.00,0.00,VWS V14.00,2014-01-13 01:09:00,
2014-01-12 20:14:00,66.7,20.5,30.11,NNE,27,0.0,0.0,17,0.00,,CLR,0.00,0.00,VWS V14.00,2014-01-13 01:14:00,
2014-01-12 20:19:00,66.5,20.4,30.11,NNE,27,0.0,2.0,17,0.00,,CLR,0.00,0.00,VWS V14.00,2014-01-13 01:19:00,
2014-01-12 20:24:00,66.3,18.8,30.11,NNE,27,0.0,3.0,16,0.00,,CLR,0.00,0.00,VWS V14.00,2014-01-13 01:24:00,
2014-01-12 20:29:00,66.2,17.2,30.11,NNE,27,0.0,0.0,15,0.00,,CLR,0.00,0.00,VWS V14.00,2014-01-13 01:29:00,
2014-01-12 20:34:00,66.1,18.6,30.11,NNE,27,0.0,0.0,16,0.00,,CLR,0.00,0.00,VWS V14.00,2014-01-13 01:34:00,
2014-01-12 20:39:00,66.0,18.5,30.11,NNE,27,4.0,4.0,16,0.00,,CLR,0.00,0.00,VWS V14.00,2014-01-13 01:39:00,
2014-01-12 20:44:00,65.9,18.5,30.11,NNE,27,0.0,0.0,16,0.00,,CLR,0.00,0.00,VWS V14.00,2014-01-13 01:44:00,
2014-01-12 20:49:00,65.8,19.8,30.12,NNE,27,3.0,3.0,17,0.00,,CLR,0.00,0.00,VWS V14.00,2014-01-13 01:49:00,
2014-01-12 20:54:00,65.7,18.3,30.11,NNE,27,0.0,1.0,16,0.00,,CLR,0.00,0.00,VWS V14.00,2014-01-13 01:54:00,
2014-01-12 20:59:00,65.6,19.6,30.11,NNE,27,3.0,4.0,17,0.00,,CLR,0.00,0.00,VWS V14.00,2014-01-13 01:59:00,
2014-01-12 21:04:00,65.6,21.0,30.12,NNE,27,2.0,5.0,18,0.00,,CLR,0.00,0.00,VWS V14.00,2014-01-13 02:04:00,
2014-01-12 21:09:00,65.6,21.0,30.12,NNE,27,3.0,3.0,18,0.00,,CLR,0.00,0.00,VWS V14.00,2014-01-13 02:09:00,
2014-01-12 21:15:00,65.5,18.1,30.12,NNE,27,0.0,2.0,16,0.00,,CLR,0.00,0.00,VWS V14.00,2014-01-13 02:15:00,
2014-01-12 21:20:00,65.4,16.6,30.12,NNE,27,0.0,0.0,15,0.00,,CLR,0.00,0.00,VWS V14.00,2014-01-13 02:20:00,
2014-01-12 21:24:00,65.3,16.5,30.12,NNE,27,0.0,4.0,15,0.00,,CLR,0.00,0.00,VWS V14.00,2014-01-13 02:24:00,
2014-01-12 21:29:00,65.2,14.8,30.12,NNE,27,0.0,0.0,14,0.00,,CLR,0.00,0.00,VWS V14.00,2014-01-13 02:29:00,
2014-01-12 21:34:00,65.1,13.1,30.12,NNE,27,0.0,0.0,13,0.00,,CLR,0.00,0.00,VWS V14.00,2014-01-13 02:34:00,
2014-01-12 21:40:00,65.0,9.2,30.12,NNE,27,0.0,0.0,11,0.00,,CLR,0.00,0.00,VWS V14.00,2014-01-13 02:40:00,
2014-01-12 21:45:00,64.9,4.8,30.12,NNE,27,0.0,0.0,9,0.00,,CLR,0.00,0.00,VWS V14.00,2014-01-13 02:45:00,
2014-01-12 21:50:00,64.8,2.1,30.12,NNE,27,0.0,0.0,8,0.00,,CLR,0.00,0.00,VWS V14.00,2014-01-13 02:50:00,
2014-01-12 21:55:00,64.7,-4.0,30.12,NNE,27,0.0,0.0,6,0.00,,CLR,0.00,0.00,VWS V14.00,2014-01-13 02:55:00,
2014-01-12 22:00:00,64.5,-12.4,30.12,NNE,27,0.0,0.0,4,0.00,,CLR,0.00,0.00,VWS V14.00,2014-01-13 03:00:00,
2014-01-12 22:05:00,64.4,-38.3,30.11,NNE,27,0.0,0.0,1,0.00,,CLR,0.00,0.00,VWS V14.00,2014-01-13 03:05:00,
2014-01-12 22:10:00,64.4,0.0,30.12,NNE,27,0.0,0.0,0,0.00,,CLR,0.00,0.00,VWS V14.00,2014-01-13 03:10:00,
2014-01-12 22:15:00,64.2,0.0,30.12,NNE,27,0.0,0.0,0,0.00,,CLR,0.00,0.00,VWS V14.00,2014-01-13 03:15:00,
2014-01-12 22:20:00,64.0,0.0,30.12,NNE,27,0.0,0.0,0,0.00,,CLR,0.00,0.00,VWS V14.00,2014-01-13 03:20:00,
2014-01-12 22:25:00,63.8,0.0,30.12,NNE,27,0.0,0.0,0,0.00,,CLR,0.00,0.00,VWS V14.00,2014-01-13 03:25:00,
2014-01-12 22:30:00,63.7,0.0,30.11,NNE,27,0.0,1.0,0,0.00,,CLR,0.00,0.00,VWS V14.00,2014-01-13 03:30:00,
2014-01-12 22:35:00,63.5,0.0,30.12,NNE,27,0.0,0.0,0,0.00,,FEW034,0.00,0.00,VWS V14.00,2014-01-13 03:35:00,
2014-01-12 22:40:00,63.5,0.0,30.11,NNE,27,0.0,0.0,0,0.00,,FEW034,0.00,0.00,VWS V14.00,2014-01-13 03:40:00,
2014-01-12 22:45:00,63.4,0.0,30.11,NNE,27,0.0,0.0,0,0.00,,FEW034,0.00,0.00,VWS V14.00,2014-01-13 03:45:00,
2014-01-12 22:50:00,63.2,0.0,30.11,NNE,27,0.0,0.0,0,0.00,,FEW034,0.00,0.00,VWS V14.00,2014-01-13 03:50:00,
2014-01-12 22:55:00,63.1,0.0,30.11,NNE,27,0.0,0.0,0,0.00,,FEW034,0.00,0.00,VWS V14.00,2014-01-13 03:55:00,
2014-01-12 23:00:00,63.0,0.0,30.11,NNE,27,0.0,0.0,0,0.00,,FEW034,0.00,0.00,VWS V14.00,2014-01-13 04:00:00,
2014-01-12 23:05:00,62.9,0.0,30.11,NNE,27,0.0,0.0,0,0.00,,FEW034,0.00,0.00,VWS V14.00,2014-01-13 04:05:00,
2014-01-12 23:10:00,62.8,0.0,30.11,NNE,27,0.0,1.0,0,0.00,,FEW034,0.00,0.00,VWS V14.00,2014-01-13 04:10:00,
2014-01-12 23:15:00,62.7,0.0,30.11,NNE,27,0.0,0.0,0,0.00,,FEW034,0.00,0.00,VWS V14.00,2014-01-13 04:15:00,
2014-01-12 23:20:00,62.6,0.0,30.11,NNE,27,0.0,0.0,0,0.00,,FEW034,0.00,0.00,VWS V14.00,2014-01-13 04:20:00,
2014-01-12 23:25:00,62.5,0.0,30.11,NNE,27,0.0,0.0,0,0.00,,FEW034,0.00,0.00,VWS V14.00,2014-01-13 04:25:00,
2014-01-12 23:30:00,62.3,0.0,30.10,NNE,27,0.0,0.0,0,0.00,,FEW034,0.00,0.00,VWS V14.00,2014-01-13 04:30:00,
2014-01-12 23:35:00,62.3,0.0,30.10,NNE,27,0.0,0.0,0,0.00,,SCT034,0.00,0.00,VWS V14.00,2014-01-13 04:35:00,
2014-01-12 23:40:00,62.2,0.0,30.10,NNE,27,0.0,0.0,0,0.00,,SCT034,0.00,0.00,VWS V14.00,2014-01-13 04:40:00,
2014-01-12 23:45:00,62.1,0.0,30.10,NNE,27,0.0,0.0,0,0.00,,SCT034,0.00,0.00,VWS V14.00,2014-01-13 04:45:00,
2014-01-12 23:50:00,62.0,0.0,30.10,NNE,27,0.0,0.0,0,0.00,,SCT034,0.00,0.00,VWS V14.00,2014-01-13 04:50:00,
2014-01-12 23:55:00,62.0,0.0,30.10,NNE,27,0.0,0.0,0,0.00,,SCT034,0.00,0.00,VWS V14.00,2014-01-13 04:55:00,